Tri-Cities, TN

11:34 PM EDT on April 21, 2018 (GMT -0400)
Tri-Cities Regional Tennessee / Virginia

Weather History for KTRI - March, 2013

Change the Weather History Date:

Thursday, March 28, 2013

  Actual Average Record
Temperature  
Mean Temperature 38 °F 50 °F  
Max Temperature 51 °F 63 °F 82 °F (1945)
Min Temperature 24 °F 37 °F 19 °F (1955)
Degree Days  
Heating Degree Days 27 15  
Month to date heating degree days 690 524  
Since 1 July heating degree days 3859 3906  
Cooling Degree Days 0 0  
Month to date cooling degree days 0 0  
Year to date cooling degree days 0 0  
Moisture  
Dew Point 21 °F    
Average Humidity 55    
Maximum Humidity 81    
Minimum Humidity 29    
Precipitation  
Precipitation 0.00 in 0.11 in 0.85 in (1996)
Month to date precipitation 4.01 3.10  
Year to date precipitation 15.86 9.92  
Snow  
Snow 0.00 in 0.00 in - ()
Month to date snowfall 1.5 1.3  
Since 1 July snowfall 9.2 12.1  
Snow Depth 0.00 in    
Sea Level Pressure  
Sea Level Pressure 30.28 in    
Wind  
Wind Speed 4 mph (WNW)    
Max Wind Speed 15 mph    
Max Gust Speed 21 mph    
Visibility 10 miles    
Events      
T = Trace of Precipitation, MM = Missing Value Source: NWS Daily Summary

Daily Weather History Graph

Daily Weather History Graph

Search for Another Location

Airport or City:

Astronomy

Mar. 28, 2013 Rise Set
Actual Time 7:21 AM EDT 7:48 PM EDT
Civil Twilight 6:55 AM EDT 8:14 PM EDT
Nautical Twilight 6:24 AM EDT 8:44 PM EDT
Astronomical Twilight 5:53 AM EDT 9:15 PM EDT
Moon 9:34 PM EDT (3/28) 7:51 AM EDT (3/28)
Length of Visible Light 13h 19m
Length of Day
12h 27m
Full, 98% of the Moon is Illuminated
Mar 28
Full
Apr 3
Last Quarter
Apr 10
New
Apr 18
First Quarter
Apr 25
Full

Hourly Weather History & Observations

Time (EDT) Temp. Windchill Dew Point Humidity Pressure Visibility Wind Dir Wind Speed Gust Speed Precip Events Conditions
12:53 AM 34.0 °F 29.8 °F 19.9 °F 56% 30.27 in 10.0 mi NW 4.6 mph - N/A   Mostly Cloudy
1:53 AM 34.0 °F 31.0 °F 19.0 °F 54% 30.27 in 10.0 mi WNW 3.5 mph - N/A   Partly Cloudy
2:53 AM 30.0 °F - 19.9 °F 66% 30.27 in 10.0 mi Calm Calm - N/A   Partly Cloudy
3:53 AM 28.0 °F - 21.9 °F 78% 30.26 in 10.0 mi Calm Calm - N/A   Overcast
4:53 AM 26.1 °F 21.9 °F 19.9 °F 78% 30.27 in 10.0 mi WSW 3.5 mph - N/A   Clear
5:53 AM 26.1 °F - 19.9 °F 78% 30.27 in 10.0 mi Calm Calm - N/A   Partly Cloudy
6:53 AM 25.0 °F - 19.9 °F 81% 30.28 in 10.0 mi Calm Calm - N/A   Partly Cloudy
7:53 AM 25.0 °F - 19.9 °F 81% 30.30 in 10.0 mi Calm Calm - N/A   Scattered Clouds
8:53 AM 28.9 °F - 23.0 °F 78% 30.31 in 10.0 mi Calm Calm - N/A   Scattered Clouds
9:53 AM 37.0 °F 31.6 °F 24.1 °F 59% 30.32 in 10.0 mi WNW 6.9 mph - N/A   Scattered Clouds
10:53 AM 41.0 °F 39.0 °F 21.9 °F 47% 30.32 in 10.0 mi Variable 3.5 mph - N/A   Scattered Clouds
11:53 AM 43.0 °F 37.7 °F 23.0 °F 45% 30.31 in 10.0 mi North 9.2 mph - N/A   Scattered Clouds
12:53 PM 43.0 °F 40.3 °F 21.0 °F 42% 30.30 in 10.0 mi WSW 4.6 mph - N/A   Scattered Clouds
1:53 PM 46.0 °F 40.6 °F 23.0 °F 40% 30.28 in 10.0 mi West 11.5 mph 16.1 mph N/A   Scattered Clouds
2:53 PM 46.9 °F - 21.9 °F 37% 30.27 in 10.0 mi Variable 6.9 mph - N/A   Scattered Clouds
3:53 PM 48.9 °F - 21.9 °F 35% 30.25 in 10.0 mi WNW 10.4 mph 16.1 mph N/A   Scattered Clouds
4:53 PM 50.0 °F - 21.0 °F 32% 30.24 in 10.0 mi WNW 11.5 mph 21.9 mph N/A   Scattered Clouds
5:53 PM 50.0 °F - 19.9 °F 31% 30.23 in 10.0 mi NW 8.1 mph - N/A   Partly Cloudy
6:53 PM 48.9 °F - 19.9 °F 32% 30.24 in 10.0 mi WNW 9.2 mph - N/A   Clear
7:53 PM 45.0 °F 42.6 °F 19.0 °F 36% 30.25 in 10.0 mi NNW 4.6 mph - N/A   Clear
8:53 PM 43.0 °F 41.3 °F 21.0 °F 42% 30.27 in 10.0 mi NNW 3.5 mph - N/A   Clear
9:53 PM 37.0 °F - 23.0 °F 57% 30.29 in 10.0 mi Calm Calm - N/A   Clear
10:53 PM 35.1 °F - 23.0 °F 61% 30.30 in 10.0 mi Calm Calm - N/A   Clear
11:53 PM 32.0 °F - 23.0 °F 69% 30.30 in 10.0 mi Calm Calm - N/A   Clear